User: anonymous   Login
Location: Pine Mountain Observatory
(43.7910°N, 120.9377°W)
Time: 12:51:51
(UTC-07:00)
Language:

Cosmos 1076 Rocket - Orbit

View from above orbital plane
View from above orbital plane
View from above satellite
View from above satellite

Ground track
Ground track

The orbit data is extracted from the following two-line orbital elements,

1 11267U 79011B   18174.28307587  .00000072  00000-0  49743-5 0  9997
2 11267  82.5254 239.1147 0018458  77.1054 283.2224 14.88897444130691
Epoch (UTC): 23 June 2018 06:47:37
Eccentricity: 0.0018458
inclination: 82.5254°
perigee height: 588 km
apogee height: 614 km
right ascension of ascending node: 239.1147°
argument of perigee: 77.1054°
revolutions per day: 14.88897444
mean anomaly at epoch: 283.2224°
orbit number at epoch: 13069

The dashed part of the orbit path shows where the satellite is in the earth's shadow,  

DLR